Regional Weather Roundup
Issued by NWS

Home | Current Version | Previous Version | Text Only | Print | Product List | Glossary Off
Versions: 1 2 3 4 5 6 7 8 9 10 11 12 13 14 15 16 17 18 19 20 21 22 23 24 25 26 27 28 29 30 31 32 33 34 35 36 37 38 39 40 41 42 43 44 45 46 47 48 49 50

000
ASUS43 KLMK 160910
RWRKY
KENTUCKY REGIONAL WEATHER ROUNDUP
NATIONAL WEATHER SERVICE LOUISVILLE KY
500 AM EDT WED AUG 16 2017

NOTE "FAIR" INDICATES FEW OR NO CLOUDS BELOW 12,000 FEET
WITH NO SIGNIFICANT WEATHER AND/OR OBSTRUCTIONS TO VISIBILITY.

KYZ001>023-026-027-061>063-070>075-161000-
WESTERN AND SOUTH CENTRAL KENTUCKY

CITY           SKY/WX    TMP DP  RH WIND       PRES   REMARKS
PADUCAH        MOCLDY    71  69  93 CALM      29.96R
HENDERSON      CLOUDY    69  68  96 S3        29.97R FOG
OWENSBORO      MOCLDY    72  70  93 S5        29.97R
HOPKINSVILLE   PTCLDY    71  71  98 CALM      29.98R
BOWLING GREEN  PTCLDY    74  72  93 SE3       29.99R
GLASGOW        CLOUDY    72  72 100 CALM      29.99S
$$

KYZ024-025-028>034-038-045-046-053-161000-
NORTH CENTRAL KENTUCKY

CITY           SKY/WX    TMP DP  RH WIND       PRES   REMARKS
LOUISVILLE/SDF PTCLDY    75  71  87 E5        29.97S
LOUISVILLE/LOU CLEAR     71  71 100 CALM      29.98S FOG
FORT KNOX      CLEAR     70  70 100 CALM      29.97S FOG
$$

KYZ035>037-039>044-047>052-055>060-089>105-161000-
NORTHEAST KENTUCKY

CITY           SKY/WX    TMP DP  RH WIND       PRES   REMARKS
LEXINGTON      CLEAR     70  66  87 CALM      30.01R
COVINGTON      PTCLDY    68  68 100 CALM      30.01R
FRANKFORT      CLEAR     70  66  87 CALM      29.99R FOG
$$

KYZ054-064>069-076>088-106>120-161000-
SOUTHEAST KENTUCKY

CITY           SKY/WX    TMP DP  RH WIND       PRES   REMARKS
JACKSON        FOG       71  70  96 CALM      30.03F VSB 3/4
LONDON         FOG       70  69  97 CALM      30.03S VSB 1/4
SOMERSET       CLOUDY    68  68 100 CALM      30.03S FOG
MIDDLESBORO    CLOUDY    70  70 100 CALM      30.05S FOG
MONTICELLO     FOG       68  67  96 W9        30.04S VSB 1/4
$$





USA.gov is the U.S. government's official web portal to all federal, state and local government web resources and services.